| time (UTC) | temp F | wind direction | speed MPH | gust MPH | rain 1hr in | rain 24hr in | rain mn in | humidity % | barometer mb |
| 20260901030040 | 75 | 282 | 0.0 | 0.0 | 0.00 | 0.00 | 0.00 | 86 | 1015.0 |
| 20260901024540 | 75 | 281 | 0.0 | 0.0 | 0.00 | 0.00 | 0.00 | 85 | 1015.1 |
| 20260901023043 | 75 | 281 | 0.0 | 0.0 | 0.00 | 0.00 | 0.00 | 84 | 1014.9 |
| 20260901021543 | 76 | 281 | 0.0 | 0.0 | 0.00 | 0.00 | 0.00 | 84 | 1015.1 |
| 20260901020047 | 76 | 282 | 0.0 | 0.0 | 0.00 | 0.00 | 0.00 | 83 | 1015.3 |
| 20260901014538 | 77 | 281 | 0.0 | 0.0 | 0.00 | 0.00 | 0.00 | 83 | 1015.4 |
| 20260901013038 | 77 | 282 | 0.0 | 0.0 | 0.00 | 0.00 | 0.00 | 82 | 1015.4 |
| 20260901011537 | 78 | 282 | 0.0 | 0.0 | 0.00 | 0.00 | 0.00 | 82 | 1015.4 |
| 20260901010037 | 78 | 282 | 0.0 | 0.0 | 0.00 | 0.00 | 0.00 | 80 | 1015.0 |
| 20260901004546 | 79 | 281 | 0.0 | 0.0 | 0.00 | 0.00 | 0.00 | 78 | 1014.6 |
| 20260901003036 | 80 | 282 | 0.0 | 0.0 | 0.00 | 0.00 | 0.00 | 79 | 1014.9 |
| 20260901001532 | 80 | 248 | 0.0 | 0.0 | 0.00 | 0.00 | 0.00 | 79 | 1015.3 |
| 20260901000044 | 80 | 253 | 0.0 | 3.0 | 0.00 | 0.00 | 0.00 | 78 | 1015.3 |
| 20260831234530 | 80 | 261 | 0.0 | 1.0 | 0.00 | 0.00 | 0.00 | 77 | 1015.5 |
| 20260831233028 | 81 | 259 | 0.0 | 0.0 | 0.00 | 0.00 | 0.00 | 76 | 1015.6 |
| 20260831231531 | 82 | 267 | 0.0 | 0.0 | 0.00 | 0.00 | 0.00 | 74 | 1015.7 |
| 20260831230035 | 82 | 267 | 0.0 | 0.0 | 0.00 | 0.00 | 0.00 | 72 | 1015.8 |
| 20260831224526 | 83 | 267 | 0.0 | 0.0 | 0.00 | 0.00 | 0.00 | 71 | 1015.9 |
| 20260831223026 | 84 | 271 | 0.0 | 2.0 | 0.00 | 0.00 | 0.00 | 70 | 1015.9 |
| 20260831221527 | 84 | 303 | 0.0 | 4.0 | 0.00 | 0.00 | 0.00 | 67 | 1015.8 |
| 20260831220025 | 84 | 320 | 0.0 | 0.0 | 0.00 | 0.00 | 0.00 | 69 | 1015.8 |
| 20260831214524 | 85 | 320 | 0.0 | 0.0 | 0.00 | 0.00 | 0.00 | 68 | 1015.7 |
| 20260831213028 | 85 | 320 | 0.0 | 0.0 | 0.00 | 0.00 | 0.00 | 67 | 1015.8 |
| 20260831211523 | 85 | 320 | 0.0 | 0.0 | 0.00 | 0.00 | 0.00 | 67 | 1016.0 |
| 20260831210026 | 85 | 207 | 0.0 | 4.0 | 0.00 | 0.00 | 0.00 | 65 | 1016.3 |
| 20260831204526 | 86 | 300 | 0.0 | 4.0 | 0.00 | 0.00 | 0.00 | 64 | 1016.2 |
| 20260831203020 | 85 | 240 | 1.0 | 5.0 | 0.00 | 0.00 | 0.00 | 64 | 1016.0 |
| 20260831201523 | 85 | 234 | 0.0 | 0.0 | 0.00 | 0.00 | 0.00 | 67 | 1016.0 |
| 20260831200026 | 84 | 298 | 0.0 | 4.0 | 0.00 | 0.01 | 0.00 | 71 | 1016.0 |
| 20260831194522 | 83 | 277 | 0.0 | 0.0 | 0.00 | 0.01 | 0.00 | 71 | 1015.8 |
| 20260831193017 | 84 | 277 | 0.0 | 0.0 | 0.00 | 0.01 | 0.00 | 68 | 1016.1 |
| 20260831191519 | 85 | 277 | 0.0 | 0.0 | 0.00 | 0.01 | 0.00 | 67 | 1016.4 |
| 20260831190020 | 86 | 279 | 0.0 | 8.0 | 0.00 | 0.01 | 0.00 | 62 | 1016.6 |
| 20260831184513 | 86 | 307 | 0.0 | 7.0 | 0.00 | 0.01 | 0.00 | 61 | 1016.6 |
| 20260831183012 | 86 | 263 | 0.0 | 6.0 | 0.00 | 0.01 | 0.00 | 63 | 1016.8 |
| 20260831181511 | 86 | 220 | 0.0 | 10.0 | 0.00 | 0.01 | 0.00 | 65 | 1017.0 |
| 20260831180007 | 85 | 251 | 0.0 | 3.0 | 0.00 | 0.01 | 0.00 | 68 | 1017.1 |
| 20260831174510 | 84 | 259 | 0.0 | 4.0 | 0.00 | 0.01 | 0.00 | 69 | 1017.3 |
| 20260831173002 | 84 | 144 | 1.0 | 6.0 | 0.00 | 0.01 | 0.00 | 69 | 1017.2 |
| 20260831171502 | 85 | 230 | 0.0 | 6.0 | 0.00 | 0.01 | 0.00 | 69 | 1017.3 |
| 20260831170003 | 84 | 206 | 0.0 | 5.0 | 0.00 | 0.01 | 0.00 | 70 | 1017.3 |
| 20260831164504 | 84 | 238 | 1.0 | 10.0 | 0.00 | 0.01 | 0.00 | 68 | 1017.4 |
| 20260831163100 | 84 | 165 | 0.0 | 6.0 | 0.00 | 0.01 | 0.00 | 69 | 1017.3 |
| 20260831161601 | 84 | 227 | 0.0 | 4.0 | 0.00 | 0.01 | 0.00 | 68 | 1017.3 |
| 20260831160103 | 82 | 213 | 0.0 | 5.0 | 0.00 | 0.01 | 0.00 | 74 | 1017.3 |
| 20260831154619 | 81 | 215 | 0.0 | 3.0 | 0.00 | 0.01 | 0.00 | 74 | 1017.4 |
| 20260831153052 | 81 | 244 | 0.0 | 4.0 | 0.00 | 0.01 | 0.00 | 69 | 1017.3 |
| 20260831151551 | 81 | 225 | 0.0 | 0.0 | 0.00 | 0.01 | 0.00 | 75 | 1017.3 |
| 20260831150048 | 80 | 230 | 0.0 | 3.0 | 0.00 | 0.01 | 0.00 | 77 | 1017.4 |
| 20260831144545 | 79 | 198 | 0.0 | 5.0 | 0.00 | 0.01 | 0.00 | 77 | 1017.6 |
| 20260831143103 | 77 | 260 | 0.0 | 2.0 | 0.00 | 0.01 | 0.00 | 82 | 1017.4 |
| 20260831141552 | 76 | 290 | 0.0 | 1.0 | 0.00 | 0.01 | 0.00 | 84 | 1017.4 |
| 20260831140040 | 75 | 283 | 0.0 | 4.0 | 0.00 | 0.01 | 0.00 | 85 | 1017.5 |
| 20260831134536 | 74 | 232 | 0.0 | 0.0 | 0.00 | 0.01 | 0.00 | 86 | 1017.5 |
| 20260831133036 | 74 | 268 | 0.0 | 0.0 | 0.00 | 0.01 | 0.00 | 85 | 1017.5 |
| 20260831131530 | 74 | 269 | 0.0 | 0.0 | 0.00 | 0.01 | 0.00 | 85 | 1017.5 |
| 20260831130028 | 74 | 268 | 0.0 | 2.0 | 0.00 | 0.01 | 0.00 | 86 | 1017.6 |
| 20260831124526 | 73 | 326 | 0.0 | 1.0 | 0.00 | 0.01 | 0.00 | 88 | 1017.3 |
| 20260831123024 | 72 | 197 | 0.0 | 0.0 | 0.00 | 0.01 | 0.00 | 89 | 1017.3 |
| 20260831121524 | 72 | 197 | 0.0 | 2.0 | 0.00 | 0.01 | 0.00 | 89 | 1017.4 |
| 20260831120028 | 72 | 279 | 0.0 | 0.0 | 0.00 | 0.01 | 0.00 | 89 | 1017.5 |
| 20260831114532 | 72 | 277 | 0.0 | 0.0 | 0.00 | 0.01 | 0.00 | 88 | 1017.3 |
| 20260831113022 | 72 | 277 | 0.0 | 0.0 | 0.00 | 0.01 | 0.00 | 88 | 1017.5 |
| 20260831111521 | 72 | 278 | 0.0 | 0.0 | 0.00 | 0.01 | 0.00 | 87 | 1017.4 |
| 20260831110021 | 72 | 268 | 0.0 | 1.0 | 0.00 | 0.01 | 0.00 | 87 | 1017.3 |
| 20260831104520 | 72 | 61 | 0.0 | 0.0 | 0.00 | 0.01 | 0.00 | 87 | 1017.0 |
| 20260831103020 | 72 | 61 | 0.0 | 0.0 | 0.00 | 0.01 | 0.00 | 87 | 1016.8 |
| 20260831101526 | 72 | 61 | 0.0 | 0.0 | 0.00 | 0.01 | 0.00 | 87 | 1016.7 |
| 20260831100019 | 72 | 342 | 0.0 | 0.0 | 0.00 | 0.01 | 0.00 | 87 | 1016.7 |
| 20260831094519 | 72 | 342 | 0.0 | 0.0 | 0.00 | 0.01 | 0.00 | 86 | 1016.7 |
| 20260831093018 | 72 | 342 | 0.0 | 0.0 | 0.00 | 0.01 | 0.00 | 86 | 1016.7 |
| 20260831091517 | 72 | 342 | 0.0 | 0.0 | 0.00 | 0.01 | 0.00 | 85 | 1016.8 |
| 20260831090017 | 72 | 342 | 0.0 | 0.0 | 0.00 | 0.01 | 0.00 | 85 | 1016.9 |
| 20260831084517 | 72 | 335 | 0.0 | 0.0 | 0.00 | 0.01 | 0.00 | 85 | 1016.8 |
| 20260831083015 | 72 | 334 | 0.0 | 0.0 | 0.00 | 0.01 | 0.00 | 85 | 1016.8 |
| 20260831081514 | 72 | 333 | 0.0 | 2.0 | 0.00 | 0.01 | 0.00 | 85 | 1016.7 |
| 20260831080013 | 72 | 333 | 0.0 | 2.0 | 0.00 | 0.01 | 0.00 | 86 | 1016.8 |
| 20260831074512 | 71 | 360 | 0.0 | 0.0 | 0.00 | 0.01 | 0.00 | 87 | 1016.8 |
| 20260831073021 | 71 | 283 | 0.0 | 0.0 | 0.00 | 0.01 | 0.00 | 88 | 1016.8 |
| 20260831071508 | 71 | 283 | 0.0 | 0.0 | 0.00 | 0.01 | 0.00 | 89 | 1017.0 |
| 20260831070016 | 71 | 283 | 0.0 | 0.0 | 0.00 | 0.01 | 0.00 | 90 | 1017.1 |
| 20260831064508 | 71 | 126 | 0.0 | 0.0 | 0.00 | 0.01 | 0.00 | 90 | 1017.0 |
| 20260831063012 | 71 | 126 | 0.0 | 0.0 | 0.00 | 0.01 | 0.00 | 90 | 1017.3 |
| 20260831061503 | 71 | 126 | 0.0 | 0.0 | 0.00 | 0.01 | 0.00 | 90 | 1017.4 |
| 20260831060001 | 71 | 126 | 0.0 | 0.0 | 0.00 | 0.01 | 0.00 | 90 | 1017.4 |
| 20260831054601 | 71 | 126 | 0.0 | 0.0 | 0.00 | 0.01 | 0.00 | 90 | 1017.6 |
| 20260831053059 | 71 | 126 | 0.0 | 0.0 | 0.00 | 0.01 | 0.00 | 90 | 1017.6 |
| 20260831051617 | 72 | 126 | 0.0 | 0.0 | 0.00 | 0.01 | 0.00 | 89 | 1017.5 |
| 20260831050058 | 72 | 126 | 0.0 | 0.0 | 0.00 | 0.01 | 0.00 | 89 | 1017.5 |
| 20260831044558 | 72 | 34 | 0.0 | 0.0 | 0.00 | 0.01 | 0.00 | 89 | 1017.6 |
| 20260831043056 | 72 | 34 | 0.0 | 0.0 | 0.00 | 0.01 | 0.00 | 90 | 1017.7 |
| 20260831041600 | 72 | 33 | 0.0 | 0.0 | 0.00 | 0.01 | 0.00 | 90 | 1017.8 |
| 20260831040052 | 71 | 33 | 0.0 | 0.0 | 0.00 | 0.01 | 0.01 | 91 | 1017.7 |
| 20260831034551 | 71 | 33 | 0.0 | 0.0 | 0.00 | 0.01 | 0.01 | 91 | 1017.7 |
| 20260831033051 | 71 | 34 | 0.0 | 0.0 | 0.00 | 0.01 | 0.01 | 91 | 1017.8 |
| 20260831031550 | 71 | 34 | 0.0 | 0.0 | 0.00 | 0.01 | 0.01 | 91 | 1017.8 |